DateTimeUTC,F1_A11,F1_S11,BsB_S11,BsG_S11,BsR_S11,BbsB_S11,BbsG_S11,BbsR_S11,BaB_A11,BaG_A11,BaR_A11,Tu_S11,T_S11,Uu_S11,U_S11,P_S11,T1_A11
2021-05-07T08:00:00Z,00000200,21000000,,,,,,,-000.04,0000.49,0000.64,17.3,24.3,01.2,00.8,0673.0,31.0
2021-05-07T08:01:00Z,00000200,21000000,,,,,,,0000.69,0000.21,-000.04,17.3,24.3,01.2,00.8,0673.0,31.0
2021-05-07T08:02:00Z,00000200,21000000,,,,,,,-000.14,0000.22,0000.17,17.3,24.4,01.2,00.8,0673.0,31.0
2021-05-07T08:03:00Z,00000200,61000000,,,,,,,0001.27,0001.17,0000.81,17.3,24.4,01.2,00.8,0673.0,31.0
2021-05-07T08:04:00Z,00000200,41000000,0001.45,0000.94,0000.29,0000.54,0000.31,-000.19,0007.15,0006.41,0005.11,17.7,24.3,01.1,00.8,0674.0,31.0
2021-05-07T08:05:00Z,00000200,01000000,0001.85,0000.65,0000.72,-000.03,0000.22,0000.28,0012.27,0011.44,0009.08,17.8,24.3,01.1,00.8,0674.1,31.0
2021-05-07T08:06:00Z,00000200,01000000,0002.33,0001.33,0000.80,0000.49,0000.32,-000.03,0015.09,0013.84,0010.57,17.7,24.3,01.1,00.8,0674.1,31.0
2021-05-07T08:07:00Z,00000200,01000000,0003.75,0002.89,0001.61,0001.22,0000.72,0000.23,0048.06,0044.00,0034.73,17.7,24.2,01.2,00.8,0674.1,31.0
2021-05-07T08:08:00Z,00000200,01000000,0002.33,0000.84,0000.72,0000.45,0000.28,0000.23,0017.39,0016.35,0012.86,17.7,24.2,01.2,00.8,0674.1,31.0
2021-05-07T08:09:00Z,00000200,01000000,0000.79,0000.83,0000.75,0000.43,0000.22,0000.01,0004.34,0003.22,0002.99,17.7,24.2,01.2,00.8,0674.1,31.0
2021-05-07T08:10:00Z,00000200,01000000,0006.74,0004.52,0003.28,0001.40,0001.15,0000.69,0082.05,0075.51,0059.13,17.7,24.2,01.2,00.8,0674.1,31.0
2021-05-07T08:11:00Z,00000200,01000000,0005.43,0003.96,0002.43,0001.43,0000.61,0000.59,0076.05,0070.15,0055.75,17.8,24.2,01.3,00.8,0674.1,31.0
2021-05-07T08:12:00Z,00000200,01000000,0002.56,0001.83,0001.17,0000.63,0000.29,0000.25,0029.04,0026.69,0021.31,17.8,24.2,01.2,00.8,0674.1,31.0
2021-05-07T08:13:00Z,00000200,01000000,0000.04,0000.73,0000.65,0000.25,0000.32,0000.18,0004.14,0003.97,0003.28,17.9,24.3,01.1,00.7,0674.1,31.1
2021-05-07T08:14:00Z,00000200,01000000,0000.84,0000.31,0000.38,0000.27,-000.07,-000.16,0001.00,0001.08,0000.80,18.0,24.3,01.3,00.9,0674.1,31.1
2021-05-07T08:15:00Z,00000200,01000000,0000.40,0000.65,0000.46,0000.25,0000.17,0000.25,0000.92,0000.57,0000.36,18.0,24.4,01.2,00.8,0674.1,31.0
2021-05-07T08:16:00Z,00000200,01000000,0000.58,0000.49,0000.33,-000.28,0000.08,-000.09,0000.63,0000.67,0000.44,18.0,24.4,01.2,00.8,0674.1,31.0
2021-05-07T08:17:00Z,00000200,01000000,0000.55,0000.40,0000.22,0000.07,0000.10,0000.19,0000.32,0000.54,0000.44,18.0,24.4,01.2,00.8,0674.1,31.0
2021-05-07T08:18:00Z,00000200,01000000,0001.14,0000.33,0000.31,0000.34,-000.02,0000.06,0000.65,0000.74,0000.18,17.9,24.4,01.1,00.7,0674.1,31.0
2021-05-07T08:19:00Z,00000200,01000000,0000.73,0000.53,0000.12,-000.03,0000.13,-000.52,0000.72,0000.11,0000.54,17.9,24.4,01.2,00.8,0674.1,31.0
2021-05-07T08:20:00Z,00000200,01000000,0000.32,0000.41,0000.21,0000.15,0000.04,-000.11,0000.50,0000.35,0000.33,17.9,24.3,01.1,00.8,0674.1,31.0
2021-05-07T08:21:00Z,00000200,01000000,0000.60,0000.55,0000.41,0000.19,0000.02,0000.22,0000.40,0000.70,0000.43,17.8,24.3,01.2,00.8,0674.1,31.0
2021-05-07T08:22:00Z,00000200,01000000,0001.64,0001.02,0000.52,0000.58,0000.17,-000.02,0004.34,0003.68,0002.80,17.8,24.3,01.2,00.8,0674.1,31.0
2021-05-07T08:23:00Z,00000200,01000000,0001.98,0001.40,0000.94,0000.46,0000.36,-000.06,0019.70,0018.03,0014.18,17.7,24.3,01.3,00.8,0674.1,31.0
2021-05-07T08:24:00Z,00000200,01000000,0001.59,0000.74,0000.64,-000.01,0000.30,0000.02,0007.78,0007.51,0005.92,17.7,24.2,01.3,00.9,0674.1,31.0
2021-05-07T08:25:00Z,00000200,01000000,0001.09,0000.74,0000.35,0000.06,0000.03,0000.05,0001.01,0000.86,0000.49,17.8,24.3,01.2,00.8,0674.1,31.0
2021-05-07T08:26:00Z,00000200,01000000,0000.81,0000.58,0000.13,0000.58,0000.08,-000.14,0000.99,0001.02,0001.39,17.8,24.3,01.4,00.9,0674.1,31.0
2021-05-07T08:27:00Z,00000200,01000000,0001.06,0000.78,0000.03,0000.18,0000.07,-000.17,0000.91,0000.84,0000.65,17.9,24.3,01.4,00.9,0674.1,31.0
2021-05-07T08:28:00Z,00000200,01000000,0000.75,0000.81,0000.55,0000.29,0000.03,-000.10,0002.03,0001.82,0001.21,18.0,24.4,01.5,01.0,0674.1,31.0
2021-05-07T08:29:00Z,00000200,01000000,0005.66,0003.63,0002.21,0001.23,0000.95,0000.64,0058.62,0053.41,0042.26,18.0,24.4,01.5,01.0,0674.1,31.0
2021-05-07T08:30:00Z,00000200,01000000,0001.39,0001.13,0001.00,0000.66,0000.27,0000.18,0012.68,0012.35,0009.62,18.0,24.4,01.5,01.0,0674.2,31.0
2021-05-07T08:31:00Z,00000200,01000000,0001.15,0000.91,0000.47,0000.42,0000.56,0000.13,0004.37,0003.85,0003.06,18.0,24.4,01.5,01.0,0674.2,31.0
2021-05-07T08:32:00Z,00000200,01000000,0006.04,0004.73,0002.85,0001.47,0001.00,0000.64,0074.00,0068.24,0053.86,18.0,24.4,01.5,01.0,0674.2,31.0
2021-05-07T08:33:00Z,00000200,01000000,0005.57,0003.72,0002.04,0000.64,0000.95,0000.10,0066.04,0060.33,0048.12,17.9,24.4,01.6,01.1,0674.2,31.0
2021-05-07T08:34:00Z,00000200,01000000,0002.54,0001.69,0001.23,0000.83,0000.24,0000.12,0034.13,0031.75,0025.32,17.9,24.3,01.5,01.0,0674.2,31.0
2021-05-07T08:35:00Z,00000200,01000000,0002.79,0001.78,0001.37,0000.67,0000.64,0000.11,0030.97,0028.30,0021.87,17.8,24.3,01.5,01.0,0674.2,31.0
2021-05-07T08:36:00Z,00000200,01000000,0003.16,0002.16,0001.41,0000.20,0000.54,0000.16,0029.16,0027.07,0021.59,17.8,24.3,01.5,01.0,0674.4,31.0
2021-05-07T08:37:00Z,00000200,01000000,0001.20,0001.04,0000.66,-000.15,0000.49,0000.01,0010.17,0009.10,0007.46,17.8,24.3,01.6,01.1,0674.6,31.0
2021-05-07T08:38:00Z,00000200,01000000,0001.06,0000.36,0000.36,0000.17,0000.21,-000.05,0001.55,0001.43,0001.08,17.7,24.3,01.5,01.0,0674.6,31.0
2021-05-07T08:39:00Z,00000200,01000000,0001.18,0001.05,0000.71,0000.17,0000.20,0000.19,0008.79,0007.80,0006.00,17.7,24.2,01.6,01.0,0674.6,31.0
2021-05-07T08:40:00Z,00000200,01000000,0002.89,0002.35,0001.26,0000.82,0000.61,0000.19,0034.68,0031.85,0025.13,17.7,24.2,01.6,01.1,0674.6,31.0
2021-05-07T08:41:00Z,00000200,01000000,0000.55,0001.08,0000.51,0000.26,0000.19,-000.09,0011.31,0010.67,0008.38,17.6,24.2,01.5,01.0,0674.6,30.9
2021-05-07T08:42:00Z,00000200,01000000,0000.61,0000.34,0000.22,0000.03,0000.27,0000.04,0000.91,0001.16,0000.76,17.6,24.2,01.5,01.0,0674.6,31.0
2021-05-07T08:43:00Z,00000200,01000000,0000.35,0000.34,0000.59,-000.15,0000.08,-000.03,0000.44,0000.60,0000.71,17.6,24.1,01.6,01.0,0674.6,30.9
2021-05-07T08:44:00Z,00000200,01000000,0001.11,0000.24,0000.49,0000.19,0000.27,-000.10,0001.28,0000.39,0000.89,17.6,24.1,01.5,01.0,0674.6,30.9
2021-05-07T08:45:00Z,00000200,01000000,0001.23,0000.49,0000.32,-000.53,0000.11,0000.06,0000.59,0000.70,0000.20,17.5,24.1,01.4,00.9,0674.6,30.9
2021-05-07T08:46:00Z,00000200,01000000,0001.30,0000.54,0000.45,-000.00,0000.38,-000.11,0000.47,0000.79,0000.69,17.5,24.1,01.5,01.0,0674.6,30.9
2021-05-07T08:47:00Z,00000200,01000000,0000.78,0000.52,0000.60,-000.25,0000.25,0000.02,0000.49,0000.13,-000.02,17.5,24.0,01.4,00.9,0674.6,30.9
2021-05-07T08:48:00Z,00000200,01000000,0000.06,0000.78,0000.43,0000.25,0000.23,0000.00,0000.65,0000.61,0000.17,17.4,24.0,01.4,00.9,0674.6,30.9
2021-05-07T08:49:00Z,00000200,01000000,0000.96,0000.45,0000.41,-000.04,0000.33,-000.21,0000.20,0000.19,0000.36,17.4,24.0,01.4,00.9,0674.6,30.9
2021-05-07T08:50:00Z,00000200,01000000,0001.20,0000.81,0000.41,-000.23,0000.14,0000.01,0000.53,0000.49,0000.42,17.4,24.0,01.3,00.9,0674.6,30.9
2021-05-07T08:51:00Z,00000200,01000000,0001.10,0000.48,0000.28,0000.23,0000.14,0000.09,0000.72,0000.77,0000.59,17.4,24.0,01.3,00.8,0674.6,30.9
2021-05-07T08:52:00Z,00000200,01000000,0001.03,0000.77,0000.42,-000.13,0000.15,0000.20,0000.16,0000.09,0000.14,17.3,24.0,01.4,00.9,0674.6,30.9
2021-05-07T08:53:00Z,00000200,01000000,0000.90,0000.97,0000.38,0000.34,0000.34,0000.03,0000.70,0000.72,0000.51,17.3,23.9,01.3,00.9,0674.6,30.9
2021-05-07T08:54:00Z,00000200,01000000,0000.91,0000.77,0000.20,0000.08,-000.15,-000.10,0000.53,0000.65,0000.45,17.3,23.9,01.3,00.8,0674.6,30.9
2021-05-07T08:55:00Z,00000200,01000000,0001.31,0000.58,-000.06,0000.19,0000.20,-000.22,0000.77,0000.38,0000.19,17.3,23.9,01.3,00.8,0674.5,31.0
2021-05-07T08:56:00Z,00000200,01000000,0001.20,0000.59,0000.16,-000.19,0000.29,-000.02,0000.64,0000.38,0000.29,17.4,23.9,01.2,00.8,0674.5,31.0
2021-05-07T08:57:00Z,00000200,41000000,,,,,,,0000.44,0000.72,0000.74,17.5,24.0,01.5,01.0,0674.6,31.0
2021-05-07T08:58:00Z,00000200,61000000,,,,,,,-000.18,-000.28,-000.41,17.3,24.2,01.1,00.7,0673.5,31.0
2021-05-07T08:59:00Z,00000200,21000000,,,,,,,0000.41,0000.39,0000.15,17.3,24.3,01.1,00.7,0673.5,31.0
